This is the latest recevied weather packets stored in our database for station/object DO3HUM-5. If no packets are shown the sender has not sent any weather packets the latest 10 day(s).
| Time | Temp. | Humidity | Pressure | Rain* | Wind** | Luminosity | Snow |
|---|---|---|---|---|---|---|---|
| 1777864561 | 14.44° C | 74% | 1019.9 hPa | 0 mm | - | - | - |
| 1777863954 | 14.44° C | 72% | 1019.8 hPa | 0 mm | - | - | - |
| 1777863351 | 15° C | 72% | 1019.9 hPa | 0 mm | - | - | - |
| 1777862748 | 15° C | 70% | 1019.5 hPa | 0 mm | - | - | - |
| 1777862144 | 15° C | 70% | 1019.4 hPa | 0 mm | - | - | - |
| 1777861541 | 15.56° C | 69% | 1019.5 hPa | 0 mm | - | - | - |
| 1777860938 | 15.56° C | 69% | 1019.5 hPa | 0 mm | - | - | - |
| 1777860336 | 15° C | 68% | 1019.7 hPa | 0 mm | - | - | - |
| 1777859733 | 15° C | 70% | 1019.7 hPa | 0 mm | - | - | - |
| 1777859130 | 15.56° C | 69% | 1019.7 hPa | 0 mm | - | - | - |
| 1777858527 | 15° C | 69% | 1019.7 hPa | 0 mm | - | - | - |
| 1777857924 | 15.56° C | 69% | 1019.6 hPa | 0 mm | - | - | - |
| 1777857323 | 15.56° C | 68% | 1019.6 hPa | 0 mm | - | - | - |
| 1777856720 | 16.11° C | 65% | 1019.8 hPa | 0 mm | - | - | - |
| 1777856115 | 15° C | 68% | 1019.6 hPa | 0 mm | - | - | - |
| 1777855573 | 14.44° C | 69% | 1019.4 hPa | 0 mm | - | - | - |
| 1777854970 | 14.44° C | 69% | 1019.4 hPa | 0 mm | - | - | - |
| 1777854369 | 14.44° C | 68% | 1019.4 hPa | 0 mm | - | - | - |
| 1777853765 | 15° C | 68% | 1019.4 hPa | 0 mm | - | - | - |
| 1777853163 | 15° C | 64% | 1019.4 hPa | 0 mm | - | - | - |
| 1777852559 | 15° C | 67% | 1019.4 hPa | 0 mm | - | - | - |
| 1777851956 | 15° C | 67% | 1019.4 hPa | 0 mm | - | - | - |
| 1777851355 | 15° C | 69% | 1019.3 hPa | 0 mm | - | - | - |
| 1777850751 | 15.56° C | 68% | 1019.3 hPa | 0 mm | - | - | - |
| 1777850149 | 15.56° C | 68% | 1019 hPa | 0 mm | - | - | - |
* Rain latest hour (hover to see other rain measurements)
** Current wind speed in m/s (hover to see current wind gust speed)